Find Starlink 34987

NORAD ID: 65255 Int'l Des: 2025-179 Owner: SPXS Country: US Constellation: starlink operational
LEOCIRCULARRETROGRADESSO

当前视图

正在加载3D地球...

About Starlink 34987

Starlink 34987 (NORAD 65255) is a starlink constellation satellite (v2 mini) launched Aug 18, 2025 by SPXS of US. It operates in LEO, CIRCULAR, RETROGRADE, SSO orbit with a mass of 575.00 kg.

即将过境

Passes for default location (London). Set your location on the main map for personalized predictions.

高度历史

Loading altitude history...

两行轨道根数

1 65255U 25179W 26263.05202656 .00014857 00000-0 46152-3 0 9998
2 65255 97.2841 302.3712 0001158 83.3222 276.8152 15.33450598 61235
Epoch: Sep 20, 2026 • Age: 20 hours

当前状态

高度 478.2 km
远地点 / 近地点 N/A
速度 7.62 km/s
星下点 -32.11°S, 164.38°E
发射日期 Aug 18, 2025
运行时间 1 year
类型 internet

技术详情

分类 Payload
质量 575.00 kg
干质量 530.00 kg
长度 0.30 m
跨度 29.00 m
形状 ? Box + pan
制造商 SPXS
平台类型 Starlink V2MO
阶段状态 In Orbit
所有者/国家 SPXS/US

Most Searched